| time (UTC) | temp F | wind direction | speed MPH | gust MPH | rain 1hr in | rain 24hr in | rain mn in | humidity % | barometer mb |
| 20260510141522 | 61 | 214 | 9.0 | 15.0 | 0.00 | 0.00 | 0.00 | 65 | 1019.1 |
| 20260510140003 | 62 | 236 | 7.0 | 13.0 | 0.00 | 0.00 | 0.00 | 70 | 1018.9 |
| 20260510134509 | 62 | 200 | 5.0 | 12.0 | 0.00 | 0.00 | 0.00 | 70 | 1018.7 |
| 20260510133017 | 62 | 191 | 3.0 | 9.0 | 0.00 | 0.00 | 0.00 | 75 | 1018.5 |
| 20260510131517 | 61 | 238 | 4.0 | 13.0 | 0.00 | 0.00 | 0.00 | 77 | 1018.2 |
| 20260510130026 | 60 | 207 | 3.0 | 10.0 | 0.00 | 0.00 | 0.00 | 78 | 1017.8 |
| 20260510124504 | 59 | 209 | 3.0 | 9.0 | 0.00 | 0.00 | 0.00 | 80 | 1017.6 |
| 20260510123009 | 59 | 227 | 4.0 | 9.0 | 0.00 | 0.00 | 0.00 | 81 | 1017.4 |
| 20260510121515 | 58 | 115 | 4.0 | 8.0 | 0.00 | 0.00 | 0.00 | 82 | 1017.4 |
| 20260510120021 | 57 | 198 | 2.0 | 5.0 | 0.00 | 0.00 | 0.00 | 83 | 1017.3 |
| 20260510114526 | 57 | 207 | 2.0 | 4.0 | 0.00 | 0.00 | 0.00 | 82 | 1016.8 |
| 20260510113008 | 57 | 231 | 3.0 | 6.0 | 0.00 | 0.00 | 0.00 | 82 | 1016.5 |
| 20260510111511 | 57 | 101 | 1.0 | 3.0 | 0.00 | 0.00 | 0.00 | 84 | 1016.3 |
| 20260510110031 | 58 | 147 | 1.0 | 2.0 | 0.00 | 0.00 | 0.00 | 84 | 1015.9 |
| 20260510104524 | 58 | 176 | 2.0 | 4.0 | 0.00 | 0.00 | 0.00 | 83 | 1016.1 |
| 20260510103028 | 58 | 174 | 1.0 | 5.0 | 0.00 | 0.00 | 0.00 | 83 | 1016.0 |
| 20260510101508 | 57 | 131 | 0.0 | 4.0 | 0.00 | 0.00 | 0.00 | 84 | 1015.8 |
| 20260510100016 | 54 | 80 | 0.0 | 0.0 | 0.00 | 0.00 | 0.00 | 88 | 1015.4 |
| 20260510094519 | 54 | 80 | 0.0 | 0.0 | 0.00 | 0.00 | 0.00 | 88 | 1015.4 |
| 20260510093004 | 54 | 80 | 0.0 | 0.0 | 0.00 | 0.00 | 0.00 | 88 | 1015.1 |
| 20260510091509 | 54 | 80 | 0.0 | 0.0 | 0.00 | 0.00 | 0.00 | 88 | 1015.2 |
| 20260510090019 | 54 | 80 | 0.0 | 0.0 | 0.00 | 0.00 | 0.00 | 87 | 1014.9 |
| 20260510084505 | 54 | 80 | 0.0 | 0.0 | 0.00 | 0.00 | 0.00 | 87 | 1014.5 |
| 20260510083005 | 54 | 80 | 0.0 | 0.0 | 0.00 | 0.00 | 0.00 | 87 | 1014.4 |
| 20260510081504 | 54 | 80 | 0.0 | 0.0 | 0.00 | 0.01 | 0.00 | 87 | 1014.7 |
| 20260510080010 | 54 | 80 | 0.0 | 0.0 | 0.00 | 0.01 | 0.00 | 87 | 1014.7 |
| 20260510074514 | 54 | 80 | 0.0 | 0.0 | 0.00 | 0.01 | 0.00 | 86 | 1014.5 |
| 20260510073004 | 53 | 80 | 0.0 | 1.0 | 0.00 | 0.01 | 0.00 | 87 | 1014.5 |
| 20260510071506 | 53 | 80 | 0.0 | 1.0 | 0.00 | 0.01 | 0.00 | 87 | 1014.6 |
| 20260510070004 | 54 | 80 | 0.0 | 1.0 | 0.00 | 0.01 | 0.00 | 86 | 1014.5 |
| 20260510064511 | 54 | 80 | 0.0 | 1.0 | 0.00 | 0.01 | 0.00 | 85 | 1014.6 |
| 20260510063016 | 55 | 80 | 0.0 | 2.0 | 0.00 | 0.01 | 0.00 | 84 | 1014.5 |
| 20260510061505 | 56 | 109 | 0.0 | 0.0 | 0.00 | 0.01 | 0.00 | 81 | 1014.4 |
| 20260510060005 | 57 | 109 | 0.0 | 1.0 | 0.00 | 0.01 | 0.00 | 82 | 1014.6 |
| 20260510054511 | 58 | 109 | 0.0 | 0.0 | 0.00 | 0.01 | 0.00 | 80 | 1014.5 |
| 20260510053015 | 58 | 109 | 0.0 | 4.0 | 0.00 | 0.01 | 0.00 | 79 | 1014.8 |
| 20260510051520 | 54 | 95 | 1.0 | 2.0 | 0.00 | 0.01 | 0.00 | 87 | 1014.2 |
| 20260510050005 | 54 | 95 | 0.0 | 1.0 | 0.00 | 0.01 | 0.00 | 87 | 1013.8 |
| 20260510044505 | 54 | 95 | 0.0 | 0.0 | 0.00 | 0.01 | 0.01 | 87 | 1013.8 |
| 20260510043010 | 54 | 95 | 0.0 | 0.0 | 0.00 | 0.01 | 0.01 | 86 | 1013.7 |
| 20260510041519 | 54 | 95 | 0.0 | 0.0 | 0.00 | 0.01 | 0.01 | 86 | 1013.3 |
| 20260510040020 | 55 | 95 | 0.0 | 1.0 | 0.00 | 0.01 | 0.01 | 85 | 1013.3 |
| 20260510034505 | 55 | 95 | 0.0 | 1.0 | 0.00 | 0.01 | 0.01 | 85 | 1013.4 |
| 20260510033007 | 56 | 95 | 0.0 | 0.0 | 0.00 | 0.01 | 0.01 | 85 | 1013.2 |
| 20260510031514 | 57 | 95 | 0.0 | 1.0 | 0.00 | 0.01 | 0.01 | 84 | 1013.3 |
| 20260510030033 | 57 | 95 | 0.0 | 1.0 | 0.00 | 0.01 | 0.01 | 83 | 1013.1 |
| 20260510024525 | 58 | 95 | 0.0 | 0.0 | 0.00 | 0.01 | 0.01 | 82 | 1012.8 |
| 20260510023006 | 59 | 95 | 0.0 | 1.0 | 0.00 | 0.01 | 0.01 | 80 | 1012.2 |
| 20260510021515 | 60 | 95 | 0.0 | 0.0 | 0.00 | 0.01 | 0.01 | 78 | 1012.2 |
| 20260510020021 | 62 | 95 | 0.0 | 0.0 | 0.00 | 0.01 | 0.01 | 77 | 1011.9 |
| 20260510014522 | 63 | 95 | 0.0 | 1.0 | 0.00 | 0.01 | 0.01 | 72 | 1011.6 |
| 20260510013025 | 65 | 95 | 0.0 | 1.0 | 0.00 | 0.01 | 0.01 | 71 | 1011.4 |
| 20260510011511 | 68 | 95 | 0.0 | 1.0 | 0.00 | 0.01 | 0.01 | 68 | 1011.2 |
| 20260510010014 | 70 | 95 | 0.0 | 0.0 | 0.00 | 0.01 | 0.01 | 63 | 1011.0 |
| 20260510004518 | 75 | 95 | 0.0 | 0.0 | 0.00 | 0.01 | 0.01 | 55 | 1010.9 |
| 20260510003016 | 75 | 95 | 0.0 | 0.0 | 0.00 | 0.01 | 0.01 | 54 | 1010.8 |
| 20260510001504 | 78 | 95 | 0.0 | 1.0 | 0.00 | 0.01 | 0.01 | 48 | 1010.8 |
| 20260510000009 | 79 | 95 | 0.0 | 0.0 | 0.00 | 0.01 | 0.01 | 41 | 1010.7 |
| 20260509234503 | 80 | 95 | 0.0 | 1.0 | 0.00 | 0.01 | 0.01 | 41 | 1010.7 |
| 20260509233003 | 80 | 95 | 1.0 | 4.0 | 0.00 | 0.01 | 0.01 | 38 | 1010.7 |
| 20260509231505 | 80 | 81 | 1.0 | 3.0 | 0.00 | 0.01 | 0.01 | 36 | 1010.7 |
| 20260509230011 | 81 | 73 | 3.0 | 5.0 | 0.00 | 0.01 | 0.01 | 35 | 1010.6 |
| 20260509224511 | 81 | 88 | 3.0 | 6.0 | 0.00 | 0.01 | 0.01 | 37 | 1010.6 |
| 20260509223004 | 81 | 37 | 2.0 | 6.0 | 0.00 | 0.01 | 0.01 | 32 | 1010.7 |
| 20260509221503 | 81 | 106 | 3.0 | 6.0 | 0.00 | 0.01 | 0.01 | 35 | 1010.7 |
| 20260509220004 | 81 | 103 | 1.0 | 4.0 | 0.00 | 0.01 | 0.01 | 36 | 1010.6 |
| 20260509214508 | 80 | 104 | 1.0 | 5.0 | 0.00 | 0.01 | 0.01 | 39 | 1010.7 |
| 20260509213014 | 81 | 110 | 0.0 | 4.0 | 0.00 | 0.01 | 0.01 | 41 | 1010.6 |
| 20260509211505 | 80 | 107 | 2.0 | 9.0 | 0.00 | 0.01 | 0.01 | 36 | 1010.7 |
| 20260509210004 | 80 | 122 | 1.0 | 8.0 | 0.00 | 0.01 | 0.01 | 36 | 1010.9 |
| 20260509204508 | 79 | 106 | 2.0 | 7.0 | 0.00 | 0.01 | 0.01 | 34 | 1011.0 |
| 20260509203017 | 80 | 102 | 2.0 | 6.0 | 0.00 | 0.01 | 0.01 | 39 | 1011.2 |
| 20260509201518 | 79 | 112 | 5.0 | 11.0 | 0.00 | 0.01 | 0.01 | 38 | 1011.4 |
| 20260509200004 | 79 | 100 | 3.0 | 11.0 | 0.00 | 0.01 | 0.01 | 38 | 1011.5 |
| 20260509194503 | 79 | 60 | 3.0 | 8.0 | 0.00 | 0.01 | 0.01 | 40 | 1011.6 |
| 20260509193008 | 79 | 103 | 2.0 | 7.0 | 0.00 | 0.01 | 0.01 | 42 | 1011.5 |
| 20260509191517 | 79 | 103 | 3.0 | 10.0 | 0.00 | 0.01 | 0.01 | 42 | 1011.6 |
| 20260509190018 | 78 | 95 | 4.0 | 9.0 | 0.00 | 0.01 | 0.01 | 39 | 1011.7 |
| 20260509184510 | 78 | 109 | 4.0 | 9.0 | 0.00 | 0.01 | 0.01 | 40 | 1011.6 |
| 20260509183012 | 78 | 79 | 3.0 | 8.0 | 0.00 | 0.01 | 0.01 | 41 | 1011.6 |
| 20260509181514 | 78 | 117 | 3.0 | 7.0 | 0.00 | 0.01 | 0.01 | 45 | 1011.6 |
| 20260509180019 | 77 | 79 | 5.0 | 8.0 | 0.00 | 0.01 | 0.01 | 43 | 1011.7 |
| 20260509174523 | 77 | 113 | 4.0 | 10.0 | 0.00 | 0.01 | 0.01 | 43 | 1011.8 |
| 20260509173004 | 76 | 113 | 5.0 | 10.0 | 0.00 | 0.01 | 0.01 | 45 | 1012.0 |
| 20260509171509 | 76 | 115 | 4.0 | 11.0 | 0.00 | 0.01 | 0.01 | 48 | 1012.1 |
| 20260509170014 | 76 | 95 | 3.0 | 13.0 | 0.00 | 0.01 | 0.01 | 55 | 1012.1 |
| 20260509164519 | 75 | 120 | 6.0 | 12.0 | 0.00 | 0.01 | 0.01 | 49 | 1012.1 |
| 20260509163022 | 75 | 108 | 4.0 | 9.0 | 0.00 | 0.01 | 0.01 | 53 | 1012.1 |
| 20260509161506 | 75 | 111 | 4.0 | 9.0 | 0.00 | 0.01 | 0.01 | 57 | 1012.1 |
| 20260509160012 | 74 | 92 | 2.0 | 8.0 | 0.00 | 0.01 | 0.01 | 56 | 1012.1 |
| 20260509154522 | 73 | 105 | 3.0 | 6.0 | 0.00 | 0.01 | 0.01 | 59 | 1012.0 |
| 20260509153011 | 71 | 108 | 4.0 | 9.0 | 0.00 | 0.01 | 0.01 | 60 | 1012.1 |
| 20260509151502 | 70 | 105 | 4.0 | 8.0 | 0.00 | 0.01 | 0.01 | 64 | 1012.1 |
| 20260509150002 | 69 | 84 | 4.0 | 8.0 | 0.00 | 0.01 | 0.01 | 67 | 1012.1 |
| 20260509144502 | 69 | 105 | 4.0 | 8.0 | 0.00 | 0.01 | 0.01 | 72 | 1011.9 |
| 20260509143007 | 69 | 65 | 1.0 | 2.0 | 0.00 | 0.01 | 0.01 | 80 | 1011.8 |